Weather History for Hurlburt Field, FL

Change the Weather History Date:

Thursday, November 21, 2013

  Actual Average Record
Temperature  
Mean Temperature 62 °F -  
Max Temperature 68 °F 67 °F 77 °F (1997)
Min Temperature 56 °F 48 °F 30 °F (2008)
Degree Days  
Heating Degree Days 3    
Growing Degree Days 12 (Base 50)    
Moisture  
Dew Point 55 °F    
Average Humidity 75    
Maximum Humidity 87    
Minimum Humidity 68    
Precipitation  
Precipitation 0.00 in - - ()
Sea Level Pressure  
Sea Level Pressure 30.21 in    
Wind  
Wind Speed 8 mph (NE)    
Max Wind Speed 13 mph    
Max Gust Speed -    
Visibility 10 miles    
Events Rain    
Averages and records for this station are not official NWS values.
T = Trace of Precipitation, MM = Missing Value Source: NWS Daily Summary

Daily Weather History Graph

Daily Weather History Graph

Search for Another Location

Airport:

Trip Planner

Search our weather history database for the weather conditions in past years. The results will help you decide how hot, cold, wet, or windy it might be!

Date:

Astronomy

Nov. 21, 2013 Rise Set
Actual Time 6:17 AM CST 4:47 PM CST
Civil Twilight 5:52 AM CST 5:13 PM CST
Nautical Twilight 5:22 AM CST 5:42 PM CST
Astronomical Twilight 4:54 AM CST 6:11 PM CST
Moon 8:21 PM CST 9:25 AM CST
Length of Visible Light 11h 20m
Length of Day
10h 29m
Waning Gibbous, 85% of the Moon is Illuminated
Nov 21
Waning Gibbous
Nov 25
Last Quarter
Dec 2
New
Dec 9
First Quarter
Dec 17
Full

Hourly Weather History & Observations

Time (CST) Temp. Dew Point Humidity Pressure Visibility Wind Dir Wind Speed Gust Speed Precip Events Conditions
12:58 AM 56.5 °F 49.1 °F 76% 30.18 in 10.0 mi ENE 6.9 mph - N/A   Partly Cloudy
1:38 AM 57.2 °F 48.2 °F 72% 30.18 in 10.0 mi ENE 8.1 mph - N/A   Mostly Cloudy
1:58 AM 56.7 °F 48.9 °F 75% 30.19 in 10.0 mi ENE 6.9 mph - N/A   Overcast
2:58 AM 56.7 °F 48.7 °F 75% 30.19 in 10.0 mi NE 6.9 mph - N/A   Overcast
3:58 AM 56.8 °F 48.4 °F 73% 30.20 in 10.0 mi ENE 9.2 mph - N/A   Overcast
4:58 AM 57.0 °F 48.6 °F 73% 30.20 in 10.0 mi ENE 9.2 mph - N/A   Overcast
5:58 AM 57.2 °F 48.4 °F 72% 30.21 in 10.0 mi ENE 6.9 mph - N/A   Overcast
6:03 AM 57.2 °F 48.2 °F 72% 30.20 in 10.0 mi ENE 6.9 mph - N/A   Overcast
6:33 AM 57.2 °F 48.2 °F 72% 30.21 in 10.0 mi Variable 5.8 mph - N/A   Overcast
6:43 AM 57.2 °F 48.2 °F 72% 30.21 in 10.0 mi ENE 8.1 mph - N/A   Overcast
6:58 AM 57.4 °F 48.6 °F 72% 30.23 in 10.0 mi ENE 5.8 mph - N/A   Overcast
7:58 AM 58.1 °F 49.3 °F 72% 30.24 in 10.0 mi NE 8.1 mph - N/A   Overcast
8:58 AM 59.2 °F 50.0 °F 72% 30.25 in 10.0 mi East 9.2 mph - N/A   Overcast
9:07 AM 59.0 °F 50.0 °F 72% 30.25 in 10.0 mi East 8.1 mph - N/A Rain Light Rain
9:17 AM 59.0 °F 51.8 °F 77% 30.25 in 10.0 mi East 8.1 mph - N/A   Overcast
9:58 AM 61.7 °F 52.3 °F 71% 30.25 in 10.0 mi ENE 10.4 mph - 0.00 in   Overcast
9:59 AM 62.6 °F 51.8 °F 68% 30.24 in 10.0 mi ENE 8.1 mph - N/A   Light Drizzle
10:07 AM 62.6 °F 53.6 °F 72% 30.23 in 10.0 mi ENE 12.7 mph - N/A   Overcast
10:55 AM 64.4 °F 55.4 °F 73% 30.27 in 7.0 mi ENE 8.1 mph - N/A   Overcast
11:55 AM 64.4 °F 55.4 °F 73% 30.22 in 10.0 mi Variable 4.6 mph - N/A   Overcast
12:55 PM 66.2 °F 57.2 °F 73% 30.20 in 10.0 mi NNE 6.9 mph - N/A   Overcast
1:55 PM 66.2 °F 57.2 °F 73% 30.19 in 10.0 mi NNE 6.9 mph - N/A   Overcast
2:55 PM 66.2 °F 59.0 °F 78% 30.17 in 10.0 mi North 6.9 mph - N/A   Overcast
2:57 PM 66.2 °F 59.0 °F 78% 30.17 in 10.0 mi North 6.9 mph - N/A   Overcast
2:58 PM 67.1 °F 58.6 °F 74% 30.18 in 10.0 mi North 6.9 mph - N/A   Overcast
3:23 PM 66.2 °F 59.0 °F 78% 30.17 in 10.0 mi NNE 6.9 mph - N/A   Overcast
3:58 PM 66.7 °F 58.5 °F 75% 30.18 in 10.0 mi North 6.9 mph - 0.00 in   Overcast
4:53 PM 66.2 °F 59.0 °F 78% 30.18 in 10.0 mi North 8.1 mph - N/A   Overcast
4:58 PM 66.2 °F 59.0 °F 78% 30.19 in 10.0 mi North 5.8 mph - N/A   Overcast
5:03 PM 66.2 °F 59.0 °F 78% 30.18 in 10.0 mi NNE 6.9 mph - N/A   Overcast
5:55 PM 62.6 °F 57.2 °F 82% 30.19 in 10.0 mi North 6.9 mph - N/A   Partly Cloudy
5:58 PM 62.6 °F 57.6 °F 84% 30.20 in 10.0 mi North 6.9 mph - N/A   Partly Cloudy
6:58 PM 62.2 °F 58.5 °F 87% 30.20 in 10.0 mi NNE 8.1 mph - N/A   Scattered Clouds
7:58 PM 66.4 °F 59.4 °F 78% 30.21 in 10.0 mi NE 6.9 mph - N/A   Overcast
8:58 PM 67.6 °F 59.7 °F 76% 30.23 in 10.0 mi ENE 6.9 mph - N/A   Overcast
9:18 PM 68.0 °F 59.0 °F 73% 30.22 in 10.0 mi ENE 9.2 mph - N/A   Overcast
9:45 PM 68.0 °F 59.0 °F 73% 30.22 in 10.0 mi ENE 9.2 mph - N/A   Light Drizzle
9:55 PM 68.0 °F 59.0 °F 73% 30.22 in 10.0 mi ENE 8.1 mph - N/A   Overcast
9:58 PM 67.1 °F 59.7 °F 77% 30.23 in 10.0 mi ENE 8.1 mph - 0.00 in   Overcast
10:18 PM 66.2 °F 59.0 °F 78% 30.22 in 10.0 mi ENE 8.1 mph - N/A   Overcast
10:58 PM 66.2 °F 59.4 °F 79% 30.23 in 10.0 mi ENE 8.1 mph - N/A   Clear
11:58 PM 66.6 °F 59.7 °F 79% 30.21 in 10.0 mi East 9.2 mph - N/A   Clear